Tracking 26492 objects as of 8-Dec-2022
HD Live streaming from Space Station
objects crossing your sky now

STARLINK-4559

Track STARLINK-4559 now!
10-day predictions
STARLINK-4559 is classified as:


NORAD ID: 53574
Int'l Code: 2022-101AZ
Perigee: 545.5 km
Apogee: 548.2 km
Inclination: 53.2 °
Period: 95.4 minutes
Semi major axis: 6917 km
RCS: Unknown
Launch date: August 19, 2022
Source: United States (US)
Launch site: AIR FORCE EASTERN TEST RANGE (AFETR)
aabbcc
Your satellite tracking list
Your tracking list is empty




NASA's NSSDC Master Catalog

Two Line Element Set (TLE):
1 53574U 22101AZ  22342.03428851 -.00000055  00000-0  14647-4 0  9991
2 53574  53.2188 345.4253 0001950  40.1970 319.9166 15.08842789 17156
Source of the keplerian elements: AFSPC